Regional Weather Roundup
Issued by NWS

Home | Current Version | Previous Version | Graphics & Text | Print | Product List | Glossary On
Versions: 1 2 3 4 5 6 7 8 9 10 11 12 13 14 15 16 17 18 19 20 21 22 23 24 25 26 27 28 29 30 31 32 33 34 35 36 37 38 39 40 41 42 43 44 45 46 47 48 49 50
000
ASUS43 KTOP 181408
RWRKS

WEATHER ROUNDUP FOR KANSAS
NATIONAL WEATHER SERVICE GOODLAND KS
900 AM CDT THU SEP 18 2014

NOTE:  "FAIR" INDICATES FEW OR NO CLOUDS BELOW 12,000 FEET WITH NO
SIGNIFICANT WEATHER AND/OR OBSTRUCTIONS TO VISIBILITY.

KSZ001>006-013>018-027>032-041>047-181500-
NORTHWEST KANSAS

CITY           SKY/WX    TMP DP  RH WIND       PRES   REMARKS
GOODLAND       CLOUDY    64  63  96 SE6       29.99S FOG
HAYS           CLOUDY    64  59  82 E13       29.95R
HILL CITY      FOG       62  61  96 E10       29.96S VSB 1
RUSSELL        CLOUDY    65  63  93 E12       29.94R FOG
$$

KSZ061>065-074>080-084>089-181500-
SOUTHWEST KANSAS

CITY           SKY/WX    TMP DP  RH WIND       PRES   REMARKS
DODGE CITY     SUNNY     65  56  72 SW8       29.94S
ELKHART          N/A     67  58  73 SW7         N/A
GARDEN CITY    SUNNY     60  57  89 SW6       29.95R
GREAT BEND     CLOUDY    68  64  88 SE12      29.94R
LIBERAL        SUNNY     64  57  77 SW3       29.98R
PRATT          CLOUDY    64  63  94 S7        29.95R FOG
$$

KSZ066>073-081>083-090>101-181500-
SOUTHEAST KANSAS

CITY           SKY/WX    TMP DP  RH WIND       PRES   REMARKS
CHANUTE        LGT RAIN  66  63  90 VRB6      30.02R
COFFEYVILLE    CLOUDY    67  62  84 S12       29.97F
HUTCHINSON     CLOUDY    72  68  87 S18G29    29.93R
MEDICINE LODGE   N/A     69  65  86 SE9       29.96R
NEWTON         MOSUNNY   66  59  77 S13G22    29.97R
PARSONS        CLOUDY    66  63  90 SW6       30.00R
WICHITA INTL   PTSUNNY   69  62  78 SE21      29.97R
WICHITA JABRA  CLOUDY    67  61  81 S20       29.96R
WICHITA MCCONL CLOUDY    68  65  93 SE16      29.99R
WINFIELD       CLOUDY    67  61  81 SE14G21   29.99R
$$

KSZ007>012-019>026-033>040-048>060-102>105-181500-
NORTHEAST KANSAS

CITY           SKY/WX    TMP DP  RH WIND       PRES   REMARKS
CONCORDIA      FOG       63  63 100 E13       29.98S VSB 3/4
EMPORIA        TSTM      64  64 100 S6        29.97S
LAWRENCE       CLOUDY    63  60  90 E7        30.00R FOG
MANHATTAN      CLOUDY    67  64  90 E10       29.98R
MARYSVILLE     CLOUDY    63  61  94 SE9       30.00S FOG
OLATHE IND     CLOUDY    62  61  96 E9        30.01R FOG
OLATHE EXE     CLOUDY    60  60 100 E10       30.00R FOG
SALINA         CLOUDY    68  63  84 E9        29.96R
TOPEKA BILLARD CLOUDY    65  63  93 E10       29.99R FOG
TOPEKA FORBES  CLOUDY    64  62  93 E8        29.99S FOG
$$



USA.gov is the U.S. government's official web portal to all federal, state and local government web resources and services.